| time (UTC) | temp C | wind direction | speed KPH | gust KPH | rain 1hr cm | rain 24hr cm | rain mn cm | humidity % | barometer mb |
| 20260505001523 | 21 | 360 | 0.0 | 3.2 | 0.00 | 0.00 | 0.00 | 25 | 1014.7 |
| 20260504234523 | 22 | 360 | 0.0 | 3.2 | 0.00 | 0.00 | 0.00 | 24 | 1014.6 |
| 20260504233022 | 22 | 171 | 0.0 | 4.8 | 0.00 | 0.00 | 0.00 | 23 | 1014.4 |
| 20260504231521 | 23 | 167 | 1.6 | 8.0 | 0.00 | 0.00 | 0.00 | 22 | 1014.3 |
| 20260504224523 | 23 | 165 | 0.0 | 4.8 | 0.00 | 0.00 | 0.00 | 22 | 1014.4 |
| 20260504223021 | 23 | 164 | 0.0 | 9.7 | 0.00 | 0.00 | 0.00 | 20 | 1014.3 |
| 20260504221537 | 24 | 171 | 3.2 | 8.0 | 0.00 | 0.00 | 0.00 | 19 | 1014.3 |
| 20260504214517 | 25 | 172 | 1.6 | 11.3 | 0.00 | 0.00 | 0.00 | 19 | 1014.3 |
| 20260504213016 | 25 | 72 | 3.2 | 9.7 | 0.00 | 0.00 | 0.00 | 17 | 1014.4 |
| 20260504211514 | 26 | 96 | 3.2 | 14.5 | 0.00 | 0.00 | 0.00 | 16 | 1014.4 |
| 20260504210115 | 26 | 172 | 1.6 | 9.7 | 0.00 | 0.00 | 0.00 | 16 | 1014.4 |
| 20260504204517 | 26 | 184 | 3.2 | 12.9 | 0.00 | 0.00 | 0.00 | 16 | 1014.5 |
| 20260504203014 | 26 | 196 | 6.4 | 19.3 | 0.00 | 0.00 | 0.00 | 19 | 1014.7 |
| 20260504201512 | 25 | 183 | 3.2 | 16.1 | 0.00 | 0.00 | 0.00 | 17 | 1015.0 |
| 20260504200111 | 26 | 187 | 3.2 | 14.5 | 0.00 | 0.00 | 0.00 | 16 | 1015.1 |
| 20260504194509 | 26 | 165 | 4.8 | 12.9 | 0.00 | 0.00 | 0.00 | 15 | 1015.3 |
| 20260504193007 | 26 | 45 | 1.6 | 12.9 | 0.00 | 0.00 | 0.00 | 17 | 1015.6 |
| 20260504191504 | 26 | 144 | 8.0 | 14.5 | 0.00 | 0.00 | 0.00 | 17 | 1015.7 |
| 20260504184601 | 26 | 197 | 0.0 | 16.1 | 0.00 | 0.00 | 0.00 | 15 | 1016.0 |
| 20260504183058 | 25 | 155 | 0.0 | 14.5 | 0.00 | 0.00 | 0.00 | 19 | 1016.2 |
| 20260504181601 | 26 | 165 | 1.6 | 11.3 | 0.00 | 0.00 | 0.00 | 15 | 1016.2 |
| 20260504174555 | 25 | 161 | 0.0 | 9.7 | 0.00 | 0.00 | 0.00 | 17 | 1016.4 |
| 20260504173053 | 25 | 193 | 1.6 | 8.0 | 0.00 | 0.00 | 0.00 | 18 | 1016.5 |
| 20260504171557 | 25 | 186 | 0.0 | 4.8 | 0.00 | 0.00 | 0.00 | 19 | 1016.7 |
| 20260504170149 | 25 | 355 | 0.0 | 6.4 | 0.00 | 0.00 | 0.00 | 18 | 1017.1 |
| 20260504160140 | 22 | 144 | 3.2 | 14.5 | 0.00 | 0.00 | 0.00 | 23 | 1017.9 |
| 20260504140123 | 17 | 174 | 1.6 | 8.0 | 0.00 | 0.00 | 0.00 | 39 | 1018.2 |
| 20260504130109 | 12 | 250 | 0.0 | 4.8 | 0.00 | 0.00 | 0.00 | 49 | 1018.3 |
| 20260504081551 | 7 | 138 | 0.0 | 0.0 | 0.00 | 0.00 | 0.00 | 60 | 1017.3 |
| 20260504050025 | 10 | 360 | 0.0 | 0.0 | 0.00 | 0.00 | 0.00 | 54 | 1018.0 |
| 20260504044522 | 10 | 360 | 0.0 | 0.0 | 0.00 | 0.00 | 0.00 | 52 | 1017.6 |
| 20260504043020 | 11 | 360 | 0.0 | 0.0 | 0.00 | 0.00 | 0.00 | 51 | 1017.6 |
| 20260504041518 | 11 | 360 | 0.0 | 0.0 | 0.00 | 0.00 | 0.00 | 49 | 1017.7 |
| 20260504040035 | 11 | 360 | 0.0 | 0.0 | 0.00 | 0.00 | 0.00 | 49 | 1017.8 |
| 20260504034516 | 12 | 360 | 0.0 | 0.0 | 0.00 | 0.00 | 0.00 | 47 | 1018.0 |
| 20260504033021 | 12 | 360 | 0.0 | 0.0 | 0.00 | 0.00 | 0.00 | 44 | 1018.1 |
| 20260504031516 | 13 | 360 | 0.0 | 1.6 | 0.00 | 0.00 | 0.00 | 44 | 1018.0 |
| 20260504030015 | 13 | 360 | 0.0 | 0.0 | 0.00 | 0.00 | 0.00 | 43 | 1018.0 |
| 20260504024515 | 13 | 360 | 0.0 | 1.6 | 0.00 | 0.00 | 0.00 | 43 | 1017.9 |
| 20260504023015 | 13 | 360 | 0.0 | 4.8 | 0.00 | 0.00 | 0.00 | 41 | 1017.9 |
| 20260504021515 | 14 | 360 | 0.0 | 1.6 | 0.00 | 0.00 | 0.00 | 40 | 1017.8 |
| 20260504020015 | 14 | 360 | 0.0 | 8.0 | 0.00 | 0.00 | 0.00 | 40 | 1017.6 |
| 20260504014522 | 14 | 360 | 0.0 | 3.2 | 0.00 | 0.00 | 0.00 | 38 | 1017.4 |
| 20260504013014 | 15 | 360 | 0.0 | 3.2 | 0.00 | 0.00 | 0.00 | 37 | 1017.3 |
| 20260504011514 | 15 | 360 | 0.0 | 3.2 | 0.00 | 0.00 | 0.00 | 35 | 1017.2 |
| 20260504010013 | 16 | 150 | 0.0 | 3.2 | 0.00 | 0.00 | 0.00 | 34 | 1017.0 |
| 20260504004513 | 16 | 146 | 0.0 | 0.0 | 0.00 | 0.00 | 0.00 | 33 | 1016.9 |
| 20260504003013 | 17 | 145 | 0.0 | 0.0 | 0.00 | 0.00 | 0.00 | 31 | 1017.0 |